Location: Croydon
(51.3762°N, 0.0982°W)
Time: 21:24:24
(UTC+00:00)

Altair - Pass Details

Date: 14 November 2019
Orbit: 1502 x 1682 km, 47.2° (Epoch: 07 December)

Event Time Altitude Azimuth Distance (km) Brightness Sun altitude
Rises 10:13:05 0° 285° (WNW) 4,675 9.7 17.6°
Reaches altitude 10° 10:16:20 10° 278° (W) 3,709 9.3 17.8°
Maximum altitude 10:24:42 38° 215° (SW) 2,223 9.0 18.2°
Drops below altitude 10° 10:33:20 10° 152° (SSE) 3,822 11.7 18.7°
Sets 10:36:45 0° 145° (SE) 4,832 11.5 18.8°
